EW1701 Weather Reports


Display with metric or nautical units.
time (UTC)temp
F
wind
direction
speed
MPH
gust
MPH
rain 1hr
in
rain 24hr
in
rain mn
in
humidity
%
barometer
mb
20260507173125 54 0 2.0 7.0 0.00 0.00 0.00 53 1014.7
20260507171557 54 140 1.0 8.0 0.00 0.00 0.00 53 1014.7
20260507170053 54 194 1.0 9.0 0.00 0.00 0.00 53 1014.9
20260507164555 54 169 2.0 7.0 0.00 0.00 0.00 53 1015.0
20260507163055 54 192 3.0 12.0 0.00 0.00 0.00 53 1015.0
20260507161559 54 180 3.0 9.0 0.00 0.00 0.00 52 1015.0
20260507160100 53 159 4.0 14.0 0.00 0.00 0.00 53 1015.0
20260507154545 52 200 4.0 10.0 0.00 0.00 0.00 53 1015.1
20260507153057 52 192 3.0 10.0 0.00 0.00 0.00 54 1015.1
20260507151548 52 201 5.0 10.0 0.00 0.00 0.00 54 1015.2
20260507150048 52 196 6.0 11.0 0.00 0.00 0.00 54 1015.3
20260507144548 52 189 6.0 14.0 0.00 0.00 0.00 53 1015.3
20260507143057 53 193 6.0 12.0 0.00 0.00 0.00 53 1015.4
20260507141558 53 186 5.0 13.0 0.00 0.00 0.00 52 1015.4
20260507140053 54 184 6.0 15.0 0.00 0.00 0.00 51 1015.5
20260507134554 54 200 5.0 18.0 0.00 0.00 0.00 53 1015.5
20260507133125 54 178 5.0 18.0 0.00 0.00 0.00 54 1015.7
20260507131548 53 204 7.0 15.0 0.00 0.00 0.00 54 1015.6
20260507130058 54 194 4.0 17.0 0.00 0.00 0.00 53 1015.6
20260507124609 54 184 5.0 15.0 0.00 0.00 0.00 52 1015.6
20260507123048 54 192 5.0 14.0 0.00 0.00 0.00 51 1015.5
20260507121550 55 168 6.0 16.0 0.00 0.00 0.00 51 1015.6
20260507120048 54 191 6.0 16.0 0.00 0.00 0.00 50 1015.7
20260507114558 55 190 5.0 15.0 0.00 0.00 0.00 50 1015.8
20260507113044 54 244 6.0 16.0 0.00 0.00 0.00 51 1015.9
20260507111544 53 208 4.0 12.0 0.00 0.00 0.00 52 1015.9
20260507110051 51 192 5.0 15.0 0.00 0.00 0.00 54 1016.0
20260507104552 51 189 5.0 12.0 0.00 0.00 0.00 55 1016.0
20260507103051 49 252 3.0 14.0 0.00 0.00 0.00 57 1016.2
20260507101548 49 173 2.0 10.0 0.00 0.00 0.00 58 1016.3
20260507100051 47 221 6.0 14.0 0.00 0.00 0.00 58 1016.3
20260507094555 47 190 4.0 12.0 0.00 0.00 0.00 58 1016.2
20260507093051 47 136 1.0 10.0 0.00 0.00 0.00 59 1016.1
20260507091552 47 157 4.0 11.0 0.00 0.00 0.00 58 1016.3
20260507090046 47 144 3.0 9.0 0.00 0.00 0.00 58 1016.4
20260507084548 46 144 3.0 9.0 0.00 0.00 0.00 58 1016.3
20260507083045 46 167 3.0 10.0 0.00 0.00 0.00 59 1016.4
20260507081544 45 198 3.0 10.0 0.00 0.00 0.00 60 1016.5
20260507080048 45 155 4.0 11.0 0.00 0.00 0.00 61 1016.5
20260507074551 43 186 3.0 7.0 0.00 0.00 0.00 62 1016.4
20260507073101 43 201 1.0 8.0 0.00 0.00 0.00 63 1016.4
20260507071548 43 193 1.0 6.0 0.00 0.00 0.00 64 1016.4
20260507070056 43 0 1.0 6.0 0.00 0.00 0.00 65 1016.2
20260507064552 41 178 1.0 9.0 0.00 0.00 0.00 67 1016.2
20260507063046 41 206 2.0 8.0 0.00 0.00 0.00 71 1016.3
20260507061547 40 170 1.0 6.0 0.00 0.00 0.00 74 1016.3
20260507060056 39 0 1.0 6.0 0.00 0.00 0.00 74 1016.1
20260507054549 37 0 0.0 3.0 0.00 0.00 0.00 75 1016.1
20260507053120 37 0 0.0 3.0 0.00 0.00 0.00 75 1016.1
20260507051554 35 0 0.0 0.0 0.00 0.00 0.00 74 1016.2
20260507050046 34 0 0.0 1.0 0.00 0.00 0.00 74 1016.1
20260507044558 33 0 0.0 0.0 0.00 0.00 0.00 73 1016.1
20260507043050 33 0 0.0 2.0 0.00 0.00 0.00 72 1016.1
20260507041550 33 0 0.0 0.0 0.00 0.00 0.00 72 1016.0
20260507040048 32 0 0.0 0.0 0.00 0.00 0.00 72 1016.0
20260507034554 32 0 0.0 0.0 0.00 0.00 0.00 71 1016.1
20260507033102 32 0 0.0 0.0 0.00 0.00 0.00 71 1016.2
20260507031559 32 0 0.0 0.0 0.00 0.00 0.00 71 1016.2
20260507030105 32 0 0.0 0.0 0.00 0.00 0.00 71 1016.2
20260507024607 32 0 0.0 0.0 0.00 0.00 0.00 71 1016.2
20260507023044 31 0 0.0 0.0 0.00 0.00 0.00 70 1016.3
20260507021556 31 0 0.0 0.0 0.00 0.00 0.00 70 1016.3
20260507020057 31 0 0.0 0.0 0.00 0.00 0.00 70 1016.3
20260507014555 32 0 0.0 0.0 0.00 0.00 0.00 70 1016.3
20260507013044 32 0 0.0 0.0 0.00 0.00 0.00 69 1016.5
20260507011548 32 0 0.0 0.0 0.00 0.00 0.00 69 1016.6
20260507010046 32 0 0.0 0.0 0.00 0.00 0.00 69 1016.5
20260507004542 32 0 0.0 0.0 0.00 0.00 0.00 68 1016.5
20260507003048 32 0 0.0 0.0 0.00 0.00 0.00 68 1016.5
20260507001546 33 0 0.0 0.0 0.00 0.00 0.00 68 1016.6
20260507000045 33 0 0.0 0.0 0.00 0.00 0.00 67 1016.6
20260506234553 34 0 0.0 0.0 0.00 0.00 0.00 67 1016.6
20260506233049 35 0 0.0 0.0 0.00 0.00 0.00 67 1016.7
20260506231552 35 0 0.0 0.0 0.00 0.00 0.00 66 1016.7
20260506230059 35 0 0.0 0.0 0.00 0.00 0.00 66 1016.7
20260506224546 36 0 0.0 0.0 0.00 0.00 0.00 66 1016.7
20260506223044 35 0 0.0 0.0 0.00 0.00 0.00 65 1016.8
20260506221546 35 0 0.0 0.0 0.00 0.00 0.00 65 1016.7
20260506220048 36 0 0.0 0.0 0.00 0.00 0.00 64 1016.7
20260506214547 36 0 0.0 0.0 0.00 0.00 0.00 64 1016.8
20260506213048 37 0 0.0 0.0 0.00 0.00 0.00 64 1016.9
20260506211550 37 0 0.0 0.0 0.00 0.00 0.00 63 1016.7
20260506210047 38 0 0.0 0.0 0.00 0.00 0.00 63 1016.8
20260506204552 38 0 0.0 0.0 0.00 0.00 0.00 62 1016.7
20260506203051 39 0 0.0 0.0 0.00 0.00 0.00 61 1016.6
20260506201555 40 0 0.0 0.0 0.00 0.00 0.00 60 1016.7
20260506200049 40 0 0.0 0.0 0.00 0.00 0.00 58 1016.8
20260506194550 41 0 0.0 0.0 0.00 0.00 0.00 57 1016.6
20260506193045 42 82 0.0 2.0 0.00 0.00 0.00 56 1016.6
20260506191557 43 82 0.0 3.0 0.00 0.00 0.00 55 1016.5
20260506190054 44 82 1.0 7.0 0.00 0.00 0.00 53 1016.4
20260506184550 45 76 0.0 8.0 0.00 0.00 0.00 52 1016.5
20260506183050 45 0 1.0 7.0 0.00 0.00 0.00 51 1016.3
20260506181549 46 66 2.0 9.0 0.00 0.00 0.00 50 1016.3
20260506180048 46 24 3.0 10.0 0.00 0.00 0.00 50 1016.2
20260506174543 46 65 2.0 9.0 0.00 0.00 0.00 50 1016.3